Wetbulb
53.09 52.94 52.86 52.80 53.11 53.50 53.71 53.46 53.44 53.46 53.40 53.34 53.56 53.65 53.85 53.94 53.87 53.29 54.40 58.86 54.78 50.92 52.43 54.28 55.29 53.44 53.59 53.85 52.55 55.60 56.27 56.58 55.64 52.37 51.65 52.16 51.39 52.26 52.49 54.58 54.46 52.86 52.89 50.70 53.48 50.72 47.94 61.03 59.84 55.99 61.71 62.77 62.33 62.31
53.34 53.01 52.90 52.69 52.92 53.09 53.15 53.11 53.04 53.62 53.48 53.40 53.48 53.68 53.85 53.75 53.79 53.37 53.09 57.88 58.45 53.18 52.81 56.17 56.43 57.45 56.78 56.33 53.87 55.22 54.97 57.09 57.83 55.56 55.33 55.76 53.37 54.80 55.00 51.12 58.12 52.57 55.61 53.90 54.43 53.20 60.84 61.17 61.20 62.70 62.98 62.51 62.35 63.19
53.26 53.20 53.03 52.76 52.84 52.76 52.87 52.78 52.92 52.46 52.51 53.11 53.50 53.93 53.97 53.95 53.58 52.85 51.31 54.39 54.11 51.92 53.48 55.10 54.66 59.53 60.32 58.34 58.11 52.73 56.19 57.88 57.89 59.41 56.28 57.11 55.48 56.98 52.19 53.79 55.33 57.31 59.52 55.63 56.38 57.94 58.11 60.27 62.29 62.50 62.71 62.26 63.99 65.69
53.38 53.44 53.20 53.09 52.81 52.74 52.74 52.74 52.56 52.11 53.11 53.25 53.23 53.23 53.60 53.75 53.47 52.95 50.78 54.22 53.26 52.96 48.63 55.19 60.71 59.71 62.62 61.05 58.29 56.42 55.85 57.08 56.89 56.62 54.97 55.00 54.08 58.31 54.77 55.37 54.83 56.44 58.45 57.36 56.92 58.70 59.21 59.38 61.00 61.39 62.47 65.06 64.51 64.52
53.57 53.33 53.18 53.02 52.87 52.71 52.62 52.60 52.69 52.79 53.20 53.58 53.35 52.96 53.38 53.06 52.74 52.59 52.92 53.95 54.65 51.31 49.51 51.99 57.10 60.03 61.03 61.06 59.21 57.24 54.53 54.18 54.73 53.36 53.97 53.41 56.47 56.04 56.67 55.94 54.11 57.16 56.25 53.94 53.13 58.55 59.02 59.90 61.73 62.89 62.53 63.55 64.12 63.24
53.26 53.33 53.06 52.92 52.83 52.69 52.48 52.46 52.69 52.87 53.20 53.18 53.17 52.22 52.35 52.41 52.40 52.70 53.04 56.51 56.37 55.31 51.24 49.64 58.77 58.44 59.55 60.28 58.57 57.84 56.08 54.19 54.25 53.71 54.03 55.73 57.94 56.45 52.41 51.48 57.26 57.50 57.85 56.99 56.02 57.76 60.09 61.56 62.80 63.62 63.25 62.58 63.61 63.38
53.32 53.13 52.90 52.84 52.80 52.65 52.47 52.56 52.63 52.78 52.80 52.66 52.32 52.31 51.69 51.71 52.19 52.49 51.78 53.82 55.10 57.21 51.35 51.05 54.18 57.08 60.38 59.83 59.53 58.23 57.23 54.71 54.03 53.34 53.30 54.59 55.26 55.27 52.36 49.50 55.09 54.79 55.68 57.66 58.94 59.88 58.48 59.68 59.48 62.51 64.14 63.86 63.19 64.34
52.89 52.75 52.84 52.52 52.47 52.43 52.47 52.36 52.43 52.54 52.58 52.70 52.26 51.98 51.97 52.02 51.27 52.16 56.05 52.88 53.62 53.91 54.02 50.35 52.31 55.06 59.75 56.67 56.06 59.87 56.81 56.35 56.39 54.70 55.40 53.30 54.69 55.56 51.65 56.09 56.93 57.37 57.90 58.11 58.53 58.79 57.97 58.89 60.96 61.20 61.63 63.52 62.99 61.03
52.63 52.75 52.77 52.23 52.36 52.50 52.64 52.39 52.50 52.30 52.30 51.72 51.82 52.12 53.57 52.08 54.45 54.19 54.43 53.74 55.62 53.78 49.72 52.62 50.54 50.86 58.86 56.51 58.14 57.85 58.35 53.49 57.98 54.43 54.84 56.22 54.01 52.06 56.10 57.58 57.94 58.65 58.06 58.27 59.23 58.49 58.45 58.19 59.37 60.20 61.05 61.80 62.25 61.95
52.44 52.49 52.55 52.16 52.18 52.40 52.24 52.44 52.40 51.84 50.92 51.70 53.59 52.72 52.16 52.61 54.18 53.98 54.31 52.05 51.00 53.10 53.83 50.77 55.23 51.73 57.51 55.87 55.88 55.73 56.30 53.76 51.66 54.42 57.29 53.84 52.62 56.84 57.83 59.07 60.76 60.67 61.55 60.49 58.26 57.77 58.40 59.24 60.47 60.91 62.55 63.14 61.86 60.85
52.49 52.63 52.38 51.90 52.27 52.05 52.10 52.26 52.03 50.93 51.69 50.24 46.41 47.29 50.88 55.05 55.15 53.53 50.41 49.62 51.31 48.48 52.42 52.97 52.94 52.82 57.91 53.57 53.88 57.29 53.90 54.63 49.30 52.65 53.15 51.93 51.72 56.96 59.75 61.06 61.70 60.82 60.89 60.69 60.71 60.70 61.08 62.04 60.96 61.52 59.68 58.99 62.06 61.47
52.45 52.35 52.06 51.83 51.99 51.74 51.98 52.15 51.53 51.73 48.81 47.64 47.23 49.71 51.74 52.60 50.98 47.75 47.36 50.45 49.13 48.17 54.02 52.93 53.62 55.03 57.25 58.87 55.69 56.16 52.32 54.58 47.99 56.68 52.72 49.23 57.31 60.74 60.36 60.50 60.82 60.70 60.38 60.45 61.20 61.82 63.11 62.82 62.33 62.01 61.75 59.98 61.10 60.48
52.21 52.05 51.75 51.86 51.71 51.41 51.87 52.11 51.60 51.34 50.64 50.83 47.34 45.29 47.35 49.24 40.66 43.34 43.02 45.76 47.55 53.41 56.05 55.77 54.45 55.70 57.40 57.95 54.51 54.18 49.73 49.35 55.99 51.76 49.03 54.47 60.89 60.99 61.12 60.70 60.39 60.66 61.66 62.51 62.22 62.39 62.46 61.97 61.70 61.46 61.17 61.66 61.78 61.95
51.86 51.73 51.67 51.81 51.76 51.56 51.93 51.86 51.50 51.19 49.70 45.76 45.65 38.43 43.61 43.12 45.84 46.90 47.89 50.62 54.13 56.19 56.31 57.62 56.10 55.48 56.49 54.38 54.62 49.75 52.67 53.48 47.84 46.40 48.50 57.45 61.49 61.02 61.67 61.52 61.03 60.35 60.88 60.77 60.73 60.88 60.91 60.44 60.59 61.03 60.38 60.62 60.26 60.53
51.64 51.55 51.63 51.28 52.28 51.43 51.55 51.34 50.93 51.36 47.58 43.97 46.92 41.77 45.33 49.10 50.55 51.53 51.80 53.31 55.99 56.70 56.97 55.83 54.30 54.11 53.39 51.40 52.89 50.83 48.82 46.79 47.83 48.33 55.07 61.11 62.18 62.06 61.65 61.22 60.70 60.28 59.81 59.68 59.79 59.64 59.76 59.69 59.63 59.73 60.81 61.10 61.35 61.34
51.32 51.07 52.56 51.96 50.89 51.45 50.85 51.34 52.56 51.31 47.88 44.97 46.76 46.20 49.48 49.05 49.17 50.60 51.22 51.13 55.63 57.15 56.17 54.56 50.26 49.42 49.32 50.73 49.19 47.88 47.33 45.98 51.63 56.37 60.63 62.71 62.35 61.63 61.38 61.47 61.77 60.38 59.66 58.94 58.51 58.56 58.61 58.96 58.87 59.39 59.97 60.20 60.38 60.94
50.30 49.88 51.24 50.61 50.73 50.44 50.61 50.38 50.91 46.95 44.60 44.04 44.86 49.81 49.13 48.97 49.06 50.75 51.81 50.43 55.52 52.96 50.76 51.73 47.90 47.17 52.69 48.36 47.55 51.07 49.58 53.54 56.30 58.18 61.10 63.20 61.86 61.84 61.85 61.09 59.85 59.67 59.26 58.86 59.02 59.30 59.31 60.05 60.05 58.54 57.71 58.53 59.60 60.45
49.03 52.51 51.12 50.71 50.80 51.21 51.81 51.23 48.06 46.45 43.26 45.74 44.71 46.97 48.41 50.14 49.45 50.36 51.94 53.40 52.27 51.48 51.61 49.22 52.36 48.46 47.59 45.75 46.91 53.07 55.46 53.67 57.65 58.95 60.54 61.74 62.40 61.96 61.35 60.52 59.96 59.67 59.33 58.93 59.74 60.45 60.64 59.28 57.97 57.11 58.35 58.88 58.66 59.61
50.71 51.31 50.39 50.11 50.30 49.28 46.67 46.83 48.94 43.27 44.88 47.21 47.51 49.24 49.59 49.45 51.17 52.34 52.03 53.16 54.03 53.98 52.09 50.35 47.76 47.27 48.70 52.60 50.57 52.51 54.54 54.62 55.83 56.76 59.91 61.95 61.71 61.22 61.12 60.83 60.50 59.60 59.45 59.44 60.05 59.69 60.41 60.57 59.66 59.16 58.91 58.91 58.75 61.50
50.05 50.04 50.12 50.27 50.21 47.76 44.69 45.45 50.08 45.73 43.26 46.48 48.35 47.75 48.36 48.13 50.32 50.13 50.52 51.14 51.55 50.45 48.04 46.70 47.52 50.51 51.77 53.79 54.62 54.33 55.67 57.31 55.26 53.73 56.85 59.52 61.73 61.60 60.96 60.42 58.73 60.48 58.87 60.22 60.14 53.49 59.09 60.45 61.09 60.24 59.58 59.32 60.84 58.23
50.01 51.00 50.58 51.09 50.04 47.99 46.77 45.51 44.97 45.92 46.71 45.15 47.58 47.00 46.52 48.64 47.47 47.52 47.73 50.90 47.95 47.38 46.59 49.99 51.52 54.09 58.09 57.82 56.47 56.40 56.76 57.87 56.10 57.79 57.71 58.70 60.61 59.66 59.40 59.77 61.16 58.50 57.69 58.19 57.63 56.63 54.56 58.79 59.29 60.34 59.61 60.01 60.29 59.78
50.97 49.75 50.58 50.31 47.24 45.88 43.56 47.23 44.86 46.72 44.70 45.39 45.99 46.71 45.52 44.95 45.52 47.76 50.68 47.82 47.02 49.20 50.77 50.97 52.50 54.13 54.82 55.64 55.80 58.94 57.83 57.88 58.94 57.03 52.50 52.67 57.82 60.98 58.64 58.79 58.42 57.68 57.82 57.96 58.22 58.09 58.33 59.55 60.09 59.39 59.58 59.13 56.51 57.53
50.52 49.94 48.76 47.61 42.85 41.24 40.94 48.78 43.20 45.04 41.81 44.13 47.64 45.33 45.69 47.07 49.08 51.55 47.20 49.49 50.29 56.89 56.15 56.69 56.42 57.87 56.78 57.83 58.57 58.63 59.04 57.89 56.15 56.48 57.32 57.12 58.66 59.25 58.90 59.24 59.59 58.12 56.90 57.47 59.30 57.70 58.61 54.14 56.59 59.25 57.85 58.58 58.76 58.83
47.62 46.69 43.87 41.86 41.07 38.89 45.70 43.08 45.68 44.22 44.68 43.75 43.30 42.47 45.08 47.81 50.73 48.54 46.38 51.44 54.20 57.04 55.72 55.39 54.83 54.39 55.46 56.48 56.05 57.19 57.81 58.61 56.59 57.32 57.61 57.64 55.44 57.63 58.81 57.38 59.86 60.04 59.88 59.22 59.15 59.25 59.48 58.74 55.00 58.01 58.81 58.10 57.16 56.57
41.28 40.19 41.63 35.53 43.63 41.20 40.41 41.02 42.70 42.68 41.67 43.46 42.60 43.06 45.89 48.84 44.85 45.68 47.53 50.83 53.49 54.11 53.71 53.51 53.41 53.23 52.58 53.15 54.34 58.97 60.63 61.04 55.95 55.13 57.22 56.34 55.41 57.99 58.19 59.37 61.18 60.78 61.38 58.26 57.09 57.63 58.76 59.69 58.78 58.54 58.59 58.08 58.26 57.76
35.54 41.41 37.31 41.40 41.99 40.57 41.46 39.12 40.29 41.33 43.63 41.73 42.97 46.49 48.26 46.02 43.72 43.85 48.26 52.17 52.13 53.60 51.98 50.56 51.28 50.90 51.69 53.27 53.56 55.83 58.40 60.09 59.55 56.16 56.77 57.57 57.19 57.80 57.03 56.62 55.88 58.04 61.57 60.97 59.63 58.87 58.28 59.22 58.05 58.27 58.34 57.43 50.11 57.48
35.78 38.83 43.72 46.70 44.53 44.36 42.88 43.77 44.05 43.31 41.10 40.68 43.71 44.33 45.04 40.16 41.23 47.31 52.13 53.11 52.39 53.02 53.46 53.19 51.95 50.93 50.64 50.27 53.02 56.53 57.46 58.35 58.36 58.79 59.60 59.86 57.54 56.62 59.15 57.49 58.11 59.82 61.63 59.97 59.37 59.12 59.38 58.53 57.14 58.25 58.74 58.48 58.74 58.50
41.05 42.40 38.93 42.90 42.78 43.93 40.85 41.04 40.56 40.31 42.43 46.32 45.48 42.04 41.57 42.83 45.37 52.62 54.36 54.99 54.38 52.99 52.73 53.47 54.56 53.69 52.50 53.10 55.60 56.45 57.59 59.70 57.60 58.54 58.77 58.15 60.50 60.68 61.01 60.50 60.33 51.19 58.79 60.45 60.57 60.32 60.29 59.91 59.28 58.39 59.73 58.69 58.70 59.80
40.80 43.47 43.31 40.71 41.48 41.26 41.36 40.72 42.13 44.21 47.12 46.20 43.99 44.20 46.51 50.58 53.08 53.45 54.60 55.98 54.77 53.74 52.26 51.44 52.34 54.88 53.37 52.98 53.65 54.23 56.68 57.10 55.47 53.89 55.10 55.19 56.49 58.58 60.53 59.91 60.00 60.55 61.14 60.67 51.02 53.48 60.25 59.72 60.57 59.74 59.66 57.77 58.48 58.37
40.83 44.75 41.02 41.26 40.02 39.60 44.01 46.20 45.93 48.94 50.19 49.91 49.41 49.76 50.41 52.28 54.62 57.17 55.97 53.94 54.35 54.27 55.13 53.47 55.69 55.74 54.25 54.09 56.44 58.10 59.33 58.81 58.81 58.12 55.71 55.54 57.05 59.33 59.79 59.38 59.55 61.05 61.70 61.49 60.57 60.74 46.91 55.30 55.26 58.62 58.23 59.12 59.37 59.63
44.58 43.75 40.81 41.30 41.16 44.17 45.90 47.75 48.36 50.04 50.51 50.34 51.91 50.27 50.72 53.94 55.91 57.88 58.06 57.79 55.62 58.94 56.18 52.96 54.81 55.12 54.38 56.59 56.35 56.73 57.05 58.02 58.74 58.02 58.23 57.86 58.79 60.49 61.40 61.38 61.52 61.57 61.52 61.33 60.65 59.84 59.88 58.89 59.58 59.38 56.85 57.23 59.17 57.62
43.11 40.59 39.98 38.91 42.04 46.98 46.28 48.95 49.88 49.87 50.04 50.14 51.55 51.92 51.63 52.63 51.55 58.01 57.49 56.68 56.26 55.94 53.04 55.76 57.61 58.12 58.11 57.48 56.79 57.19 48.11 56.82 58.38 58.62 57.10 57.31 60.76 61.23 60.28 61.38 62.29 62.40 61.61 61.34 60.44 59.37 59.56 57.05 58.60 59.72 58.67 59.30 59.36 59.79
43.03 42.19 41.91 41.32 43.35 46.67 49.03 47.89 49.87 49.77 51.08 51.20 52.59 52.59 54.19 52.26 50.30 58.42 60.03 60.86 58.76 56.08 53.81 57.59 57.38 58.22 61.29 59.49 57.13 58.20 53.14 61.78 55.33 46.93 46.29 46.65 43.97 47.61 57.40 61.13 60.04 59.66 59.73 59.74 60.56 60.40 59.60 58.94 59.50 59.68 56.33 58.08 58.25 57.88
MSLP
1023.46 1022.80 1022.50 1022.16 1021.77 1021.23 1020.81 1020.37 1019.85 1019.25 1018.70 1018.24 1017.83 1017.32 1016.71 1016.33 1015.94 1015.44 1013.01 1011.51 1011.12 1009.24 1006.48 1005.13 1004.31 1003.38 1002.21 1001.06 999.93 999.02 997.73 997.12 996.96 996.61 995.89 994.72 993.42 992.31 992.00 991.60 991.57 992.06 992.75 993.41 994.50 994.46 994.36 994.62 994.73 995.26 996.37 996.67 996.92 997.15
1023.20 1022.71 1022.24 1021.67 1021.35 1020.96 1020.57 1020.11 1019.62 1019.13 1018.52 1018.00 1017.59 1017.16 1016.52 1016.25 1016.01 1015.69 1013.23 1011.58 1011.08 1010.27 1007.40 1005.97 1005.14 1004.24 1003.22 1002.09 1001.47 1000.56 999.68 998.56 997.94 997.16 996.12 995.01 993.76 992.35 992.03 991.67 991.82 992.62 993.23 994.27 995.92 995.71 995.43 995.51 996.10 996.81 996.95 997.18 997.24 997.73
1022.89 1022.40 1021.71 1021.19 1020.88 1020.61 1020.13 1019.74 1019.33 1018.82 1018.25 1017.72 1017.28 1016.86 1016.33 1015.96 1015.82 1015.71 1014.53 1012.99 1011.94 1009.62 1006.49 1004.23 1002.61 1001.36 1001.67 1001.84 1001.91 1001.32 1000.25 999.78 999.11 999.34 998.42 996.47 995.03 993.62 993.34 992.92 992.89 993.56 993.93 995.05 995.50 995.49 995.61 996.15 996.77 997.25 997.56 997.67 997.49 998.21
1022.43 1022.11 1021.68 1021.07 1020.54 1020.11 1019.70 1019.26 1018.85 1018.46 1017.89 1017.31 1016.86 1016.45 1015.98 1015.56 1015.35 1015.17 1014.41 1012.92 1012.36 1010.14 1006.93 1001.56 1000.19 1000.48 1000.50 1000.48 1000.93 1001.21 1000.84 1000.51 1000.32 999.98 998.90 997.47 996.11 995.02 994.75 994.62 994.29 994.52 994.79 995.25 995.68 995.96 996.32 996.42 996.33 996.82 997.61 998.15 998.75 999.41
1022.07 1021.78 1021.29 1020.78 1020.25 1019.72 1019.20 1018.85 1018.41 1017.93 1017.39 1016.83 1016.30 1015.87 1015.43 1015.05 1014.71 1014.15 1013.17 1012.44 1012.24 1011.57 1007.61 1003.93 1001.66 1000.00 999.32 999.88 1000.48 1000.79 1000.87 1000.81 1000.50 999.99 998.85 997.82 996.96 996.43 995.92 995.89 995.59 995.12 995.28 995.66 995.83 995.83 995.78 995.99 996.42 997.11 997.73 998.59 999.15 999.95
1021.35 1021.07 1020.90 1020.39 1019.85 1019.42 1018.76 1018.33 1017.84 1017.28 1016.74 1016.21 1015.61 1015.14 1014.82 1014.46 1014.22 1013.28 1010.87 1010.80 1011.25 1011.44 1009.00 1004.66 1000.95 999.57 999.44 999.74 1000.18 1000.36 1000.53 1000.68 1000.47 999.72 998.73 998.07 997.55 997.55 997.18 996.62 996.57 996.14 995.92 995.79 995.94 995.88 996.14 996.58 997.03 997.58 998.22 999.63 999.29 1000.11
1020.75 1020.24 1020.02 1019.80 1019.53 1019.09 1018.50 1017.74 1017.24 1016.69 1016.02 1015.44 1014.83 1014.33 1013.99 1013.75 1013.55 1012.02 1011.83 1011.42 1010.98 1010.75 1008.85 1004.93 1000.78 999.29 999.31 999.79 999.72 999.73 1000.05 1000.23 1000.15 999.72 999.08 998.27 997.52 997.72 997.65 997.43 997.44 996.95 996.48 996.29 996.34 996.57 996.98 997.38 997.62 997.71 998.11 998.57 999.40 1000.34
1020.43 1019.97 1019.54 1019.22 1018.89 1018.66 1018.11 1017.37 1016.73 1016.07 1015.27 1014.57 1013.99 1013.53 1013.24 1012.93 1012.90 1011.73 1010.43 1011.28 1011.32 1010.16 1008.24 1005.00 1000.97 999.16 999.16 998.99 998.78 998.82 999.10 999.40 999.29 998.97 998.31 998.06 997.82 997.85 997.71 997.63 997.49 997.26 997.17 997.10 997.13 997.09 997.17 997.47 997.99 997.92 998.37 999.00 999.63 1000.29
1020.09 1019.67 1019.14 1018.75 1018.35 1018.12 1017.73 1017.05 1016.28 1015.48 1014.47 1013.42 1012.88 1012.76 1012.52 1012.41 1010.60 1010.59 1010.92 1011.12 1010.85 1010.28 1007.69 1004.24 1001.07 999.85 998.83 998.50 998.01 998.46 998.48 998.55 998.32 998.34 997.91 997.52 997.21 996.99 997.05 997.43 997.51 997.56 997.57 997.64 997.78 997.75 997.79 997.76 997.95 998.03 997.93 998.98 1000.14 1000.93
1019.56 1019.20 1018.75 1018.31 1018.00 1017.68 1017.29 1016.77 1016.04 1015.12 1013.65 1012.14 1011.75 1011.56 1010.92 1010.90 1010.87 1011.02 1011.02 1010.26 1009.87 1008.45 1007.17 1004.09 1001.85 1000.11 998.98 997.91 997.83 998.07 998.20 997.84 997.13 997.20 997.30 997.27 997.00 996.74 996.47 996.47 996.99 997.44 997.58 997.67 997.95 998.18 998.06 998.06 998.04 998.20 998.59 999.20 1000.32 1001.30
1019.11 1018.75 1018.35 1017.93 1017.60 1017.35 1016.93 1016.57 1016.00 1015.05 1013.56 1013.04 1012.90 1012.46 1011.66 1010.95 1010.30 1009.37 1008.66 1007.99 1006.82 1006.00 1004.56 1002.55 1001.56 999.85 998.45 998.54 998.29 998.04 998.10 997.69 997.24 996.92 997.01 996.83 996.74 996.88 996.91 997.33 997.63 997.90 998.17 998.29 998.21 998.46 998.56 998.46 998.47 999.48 1000.39 1001.46 1001.78 1001.61
1018.65 1018.28 1017.90 1017.54 1017.26 1017.00 1016.63 1016.34 1016.08 1015.09 1015.21 1015.24 1015.00 1014.10 1012.25 1009.87 1008.70 1007.95 1006.72 1005.59 1004.89 1003.35 1001.78 1001.10 1000.33 1000.05 999.47 998.90 998.83 999.66 999.44 999.33 998.52 997.38 997.78 997.83 998.17 998.22 997.94 998.14 998.49 998.55 998.62 998.56 998.39 998.73 999.31 999.91 1000.07 1001.06 1000.81 1001.65 1003.82 1002.64
1018.09 1017.80 1017.45 1017.16 1016.85 1016.60 1016.33 1016.05 1015.93 1015.54 1014.67 1014.25 1014.21 1013.20 1011.55 1009.51 1008.15 1006.49 1004.69 1004.11 1003.29 1002.21 1001.53 1001.21 1000.73 1000.10 999.92 999.73 999.21 999.60 1000.38 998.86 998.50 998.33 997.91 998.50 999.05 999.36 999.44 999.33 999.49 999.41 999.42 999.76 999.98 1000.36 1000.61 1001.02 1001.55 1001.52 1001.93 1002.34 1002.60 1002.83
1017.48 1017.26 1016.89 1016.67 1016.41 1016.13 1015.92 1015.72 1015.56 1014.99 1014.52 1013.82 1012.45 1011.44 1009.95 1008.19 1006.56 1004.96 1004.19 1003.85 1003.02 1003.00 1002.58 1002.28 1001.69 1001.37 1000.52 1000.28 999.82 1000.10 999.38 999.15 999.15 998.82 998.58 999.75 1000.08 1000.35 1000.33 1000.43 1000.43 1000.43 1000.59 1000.82 1001.24 1001.50 1001.72 1001.95 1002.12 1002.48 1002.74 1002.82 1002.81 1002.87
1016.93 1016.66 1016.25 1016.01 1015.66 1015.65 1015.54 1015.28 1015.10 1014.73 1014.27 1013.22 1011.37 1009.45 1007.48 1006.22 1006.02 1004.86 1004.33 1003.36 1003.18 1003.02 1003.11 1002.99 1001.96 1001.34 1000.82 1000.76 1000.58 1000.43 1000.25 999.35 999.10 999.11 999.60 1000.32 1000.76 1000.93 1001.04 1001.43 1001.61 1001.73 1001.96 1002.16 1002.30 1002.49 1002.75 1003.08 1003.29 1003.28 1003.24 1003.16 1002.99 1003.03
1016.48 1016.00 1015.22 1015.44 1015.55 1015.37 1015.00 1014.35 1013.77 1013.97 1013.61 1012.66 1010.70 1008.36 1006.72 1005.62 1005.03 1004.69 1004.40 1004.27 1003.22 1003.44 1003.34 1003.58 1003.33 1002.42 1001.53 1000.99 1000.49 1000.37 999.85 999.70 1000.18 1000.45 1000.80 1000.87 1000.95 1001.47 1001.99 1002.17 1002.27 1002.60 1002.74 1002.97 1003.23 1003.51 1003.75 1003.98 1004.13 1004.10 1004.16 1004.02 1003.78 1003.61
1016.31 1015.61 1015.41 1015.50 1015.31 1014.79 1014.24 1014.04 1013.12 1012.84 1012.35 1011.16 1009.43 1008.04 1007.22 1006.51 1005.56 1005.26 1005.03 1004.71 1003.98 1003.57 1003.84 1003.85 1002.98 1002.16 1001.53 1000.91 1000.71 1000.68 1000.87 1001.25 1000.67 1000.68 1000.97 1002.00 1001.70 1002.18 1002.47 1002.77 1003.02 1003.22 1003.39 1003.59 1003.74 1003.91 1004.16 1004.26 1004.10 1004.28 1004.36 1004.39 1004.29 1004.07
1015.78 1014.88 1015.30 1015.28 1015.05 1013.95 1013.12 1013.06 1012.20 1011.32 1010.59 1009.61 1008.60 1007.62 1007.45 1006.86 1006.14 1005.43 1005.20 1004.95 1004.72 1004.18 1003.98 1004.25 1003.59 1002.45 1001.60 1001.37 1002.19 1002.38 1002.18 1002.15 1001.15 1001.09 1001.61 1002.00 1002.45 1002.69 1002.93 1003.19 1003.42 1003.54 1003.69 1003.85 1003.92 1003.88 1003.91 1003.90 1004.08 1004.07 1004.31 1004.30 1004.24 1004.12
1015.22 1015.02 1015.09 1015.22 1015.25 1014.65 1013.03 1012.11 1011.46 1010.39 1009.04 1008.15 1007.79 1007.24 1006.68 1006.44 1006.11 1005.76 1005.41 1004.99 1004.71 1004.74 1004.38 1003.82 1003.32 1002.35 1001.65 1001.56 1002.29 1002.48 1002.47 1002.35 1002.36 1002.06 1002.08 1002.52 1002.88 1003.01 1003.15 1003.36 1003.39 1003.49 1003.57 1003.72 1003.73 1003.54 1003.84 1004.01 1003.97 1003.95 1003.98 1003.99 1004.04 1004.21
1015.04 1014.82 1014.71 1014.84 1014.99 1014.20 1012.82 1011.57 1010.89 1009.96 1008.54 1007.61 1007.12 1006.69 1006.33 1006.12 1005.68 1005.58 1005.15 1004.78 1004.33 1004.32 1004.40 1003.81 1003.00 1002.05 1001.82 1001.97 1001.89 1002.19 1002.55 1002.36 1002.42 1002.67 1002.37 1002.81 1003.21 1003.28 1003.21 1003.16 1003.16 1003.25 1003.18 1003.20 1003.34 1003.52 1003.63 1003.76 1003.73 1003.38 1003.89 1003.89 1004.20 1004.15
1014.36 1014.08 1014.20 1014.36 1014.18 1013.88 1012.66 1011.22 1010.18 1009.25 1008.40 1007.67 1006.70 1006.56 1006.02 1005.70 1005.29 1005.06 1004.91 1004.84 1004.56 1004.12 1003.74 1003.47 1002.92 1002.25 1002.10 1002.06 1001.92 1002.05 1002.43 1002.43 1002.29 1002.12 1002.57 1003.05 1003.18 1003.21 1002.98 1002.81 1002.80 1002.34 1001.93 1002.41 1002.45 1002.88 1003.15 1003.48 1003.71 1003.61 1003.70 1003.89 1003.97 1004.06
1014.14 1014.17 1013.79 1013.90 1013.32 1013.37 1012.87 1011.36 1010.28 1009.43 1008.96 1007.33 1006.59 1006.09 1005.41 1004.99 1004.69 1004.31 1004.12 1004.14 1003.85 1003.51 1003.16 1003.10 1002.62 1002.41 1002.40 1002.34 1002.35 1002.03 1002.16 1002.42 1002.35 1002.39 1002.75 1002.88 1002.85 1003.09 1002.87 1002.26 1002.22 1001.77 1001.38 1001.83 1001.88 1002.28 1002.41 1002.98 1003.20 1003.52 1003.59 1003.84 1004.02 1004.25
1014.10 1014.01 1013.44 1013.09 1013.03 1012.61 1011.46 1010.18 1009.88 1008.65 1007.95 1006.86 1005.94 1005.50 1004.79 1004.38 1004.05 1004.21 1003.54 1002.85 1002.83 1003.00 1002.80 1003.05 1003.00 1002.90 1002.80 1002.55 1002.44 1002.34 1002.21 1002.30 1002.17 1001.92 1002.10 1002.49 1002.29 1002.65 1002.79 1002.42 1001.84 1001.40 1001.54 1001.44 1001.37 1001.69 1002.03 1002.52 1002.83 1002.90 1003.62 1003.65 1003.88 1003.75
1014.11 1013.47 1012.61 1012.53 1012.49 1011.48 1010.07 1009.50 1008.79 1008.06 1007.35 1006.54 1005.86 1005.09 1004.47 1004.16 1003.84 1003.36 1002.90 1002.92 1003.39 1003.49 1003.39 1003.43 1003.09 1002.68 1002.39 1002.49 1002.44 1002.29 1002.11 1001.82 1002.11 1002.06 1002.08 1001.94 1002.34 1002.01 1002.29 1002.30 1001.85 1000.94 1001.09 1001.13 1001.16 1001.20 1001.35 1001.76 1002.32 1002.49 1002.60 1003.11 1003.47 1003.40
1013.69 1012.94 1012.37 1011.89 1011.00 1010.40 1009.25 1008.38 1007.82 1007.70 1006.62 1006.11 1005.66 1004.94 1004.67 1004.44 1003.96 1003.33 1002.74 1003.39 1003.46 1003.56 1003.84 1003.71 1003.44 1003.20 1002.81 1002.67 1002.44 1002.42 1002.35 1002.26 1002.12 1001.61 1001.61 1001.86 1002.34 1001.72 1001.59 1001.37 1001.36 1001.26 1001.30 1000.94 1001.04 1001.36 1001.61 1001.58 1001.38 1001.55 1002.06 1002.36 1002.62 1002.84
1012.72 1011.22 1011.03 1009.68 1009.42 1009.20 1008.78 1007.96 1007.76 1007.47 1006.53 1006.08 1005.46 1005.02 1004.64 1004.28 1003.73 1003.16 1003.63 1003.78 1003.81 1003.99 1004.02 1003.97 1003.54 1003.38 1003.08 1002.74 1002.49 1002.47 1002.19 1001.98 1001.55 1001.21 1000.98 1001.10 1001.10 1001.04 1001.01 1000.96 1001.44 1001.10 1000.91 1000.22 1000.34 1001.00 1001.13 1001.34 1001.45 1001.64 1001.45 1001.71 1001.99 1001.93
1011.54 1009.93 1009.46 1009.19 1009.04 1008.96 1008.27 1007.49 1007.18 1006.65 1006.22 1005.64 1005.02 1004.59 1004.38 1004.13 1003.68 1003.71 1003.88 1004.13 1004.25 1004.01 1003.73 1003.68 1003.62 1003.53 1003.30 1003.22 1002.83 1001.99 1001.59 1001.83 1001.68 1001.17 1000.96 1000.50 1000.53 1001.03 1001.05 1000.84 1001.04 1000.72 1000.40 1000.07 999.73 999.94 1000.46 1001.10 1001.29 1001.26 1000.94 1000.44 1000.79 1001.11
1010.50 1009.70 1009.28 1009.13 1008.95 1008.69 1008.26 1007.70 1007.02 1006.16 1005.47 1004.88 1004.66 1004.09 1003.81 1003.16 1002.67 1002.60 1002.53 1002.76 1003.00 1003.01 1002.99 1003.03 1002.66 1002.94 1003.04 1002.74 1002.05 1001.59 1001.15 1001.31 1000.91 1000.86 1000.36 999.79 999.80 1000.08 1000.29 1000.67 1000.76 1001.12 1001.09 1000.53 1000.24 1000.13 1000.55 1000.78 1000.60 1001.09 1000.36 1000.26 1000.06 1000.26
1010.13 1009.61 1009.39 1008.82 1008.58 1008.27 1007.70 1007.14 1006.32 1005.62 1005.07 1004.69 1004.24 1003.62 1002.87 1002.22 1001.59 1001.19 1000.98 1000.83 1002.08 1002.67 1002.77 1002.48 1002.05 1001.74 1001.78 1001.85 1001.70 1001.62 1001.16 1001.31 1001.26 1001.10 1000.73 999.82 999.66 999.75 1000.10 1000.62 1000.93 1000.66 1000.26 1000.41 1000.17 1000.23 1000.42 1000.48 1000.80 1000.49 1000.47 1001.21 1001.23 1001.00
1009.65 1009.34 1009.12 1008.48 1008.01 1007.29 1006.52 1006.00 1005.52 1004.93 1004.64 1004.42 1004.43 1003.73 1002.86 1001.80 1000.98 1000.62 1000.56 1001.70 1001.65 1001.89 1001.72 1001.64 1001.23 1000.58 1000.50 1000.42 1000.20 999.76 999.69 1000.39 1000.41 1000.06 1000.04 999.93 999.78 999.71 999.62 999.82 1000.10 999.75 999.18 999.01 999.31 999.94 1000.47 1000.27 1000.55 1000.78 1000.53 999.89 999.66 999.47
1009.50 1009.43 1009.34 1008.73 1007.73 1006.74 1006.23 1006.00 1005.71 1005.13 1004.50 1003.93 1003.43 1002.89 1001.89 1000.82 1000.16 1000.38 1000.56 1001.24 1001.67 1001.61 1001.52 1001.17 1000.63 1000.62 1000.64 1000.45 1000.05 999.59 999.27 999.44 999.75 1000.85 1000.90 1000.82 1000.47 1000.02 999.62 999.23 998.81 998.73 998.56 998.42 998.36 998.56 999.17 1000.04 999.97 999.81 1000.09 1000.02 999.41 998.93
1009.17 1009.28 1009.28 1008.71 1007.43 1006.24 1006.17 1005.10 1004.15 1003.54 1002.95 1002.82 1002.14 1001.84 1001.27 1000.89 1001.14 1000.98 1001.73 1001.04 1000.97 1000.50 1000.59 1000.43 1000.25 1000.22 1000.57 1000.25 999.73 999.77 1000.09 1000.29 1000.14 1000.56 1000.78 1000.21 1000.08 1000.49 1000.44 999.60 998.96 998.33 997.92 997.68 998.01 998.05 998.39 999.15 999.57 999.31 998.99 999.92 1000.29 999.53
1008.58 1008.89 1008.88 1008.50 1007.24 1005.62 1004.80 1004.58 1003.82 1003.50 1002.99 1002.57 1002.10 1001.62 1001.27 1001.41 1001.24 1000.98 1000.23 1000.03 1000.91 1001.33 1000.72 1000.30 999.76 998.71 999.12 1000.15 998.91 998.51 999.01 999.00 998.86 999.48 999.85 999.89 999.92 999.99 998.86 997.53 997.71 997.61 997.44 997.50 998.05 997.73 997.75 998.00 998.33 998.36 998.84 999.73 1000.36 1001.01
Wind_Speed
15 14 15 16 17 16 17 18 18 18 18 19 19 18 16 16 15 10 10 10 5 8 19 23 18 15 13 9 9 14 8 3 8 12 11 13 13 13 17 16 17 17 13 11 13 19 16 12 9 5 7 5 6 5
15 15 15 15 15 16 16 17 18 17 18 18 19 18 16 15 13 10 8 11 10 9 16 24 23 23 22 19 11 9 13 8 6 6 5 8 11 10 3 6 9 4 3 1 5 4 5 8 7 9 5 7 4 2
15 15 14 14 15 16 16 17 18 20 20 19 19 19 17 14 12 7 7 9 10 10 14 16 17 22 20 20 16 10 7 8 5 7 6 6 8 7 3 6 1 2 5 4 5 5 3 3 5 4 5 7 5 10
15 15 16 15 16 17 17 17 18 20 19 19 19 19 18 15 14 10 6 7 7 8 7 6 5 5 9 11 15 16 16 12 9 7 7 7 7 5 6 7 9 5 6 7 6 5 6 10 7 4 4 8 12 10
15 15 15 16 16 17 17 18 18 20 20 20 19 20 18 17 16 11 9 9 8 6 7 10 21 17 10 9 9 11 13 12 7 6 6 7 6 8 6 5 8 9 8 3 7 8 5 7 4 6 6 7 9 10
14 14 15 16 16 18 18 18 19 20 20 21 21 21 19 17 13 6 4 6 8 9 7 6 9 7 3 4 7 8 8 9 8 8 6 7 13 1 4 6 9 13 14 15 9 11 7 5 4 5 6 10 9 14
15 14 14 15 17 18 18 19 19 21 21 22 22 20 20 17 7 6 5 3 1 7 5 7 6 7 9 8 7 7 9 6 6 8 8 9 6 2 4 9 11 15 14 10 11 5 5 4 7 6 13 15 13 14
15 14 14 15 15 17 18 18 20 21 22 23 22 18 17 11 6 7 7 8 6 6 5 6 6 7 9 6 6 5 6 7 7 8 8 9 8 5 5 7 9 9 8 10 12 10 8 6 8 13 8 15 15 15
15 14 14 15 15 17 18 19 20 23 25 25 21 14 4 6 3 3 6 4 5 5 5 7 8 4 6 9 6 6 4 6 4 7 8 5 7 6 9 10 8 7 5 4 6 8 11 10 11 16 11 13 10 13
14 14 14 13 14 15 17 19 20 22 27 25 6 5 3 4 7 4 4 5 5 5 6 7 8 7 6 6 6 5 6 6 5 8 7 8 9 11 11 8 7 6 7 4 3 6 10 8 12 7 4 13 10 16
14 14 14 14 14 14 16 17 15 21 8 7 5 4 6 6 5 5 4 6 6 5 6 7 11 10 3 2 3 3 4 3 6 6 4 5 7 5 3 9 6 1 3 8 6 7 7 9 7 10 10 19 9 14
14 13 13 14 14 14 14 13 13 10 3 4 6 7 6 5 5 5 4 4 5 5 3 8 8 9 4 4 3 4 3 2 3 2 2 4 3 4 3 6 3 4 6 7 5 5 11 12 11 7 12 11 11 8
13 13 14 14 14 13 14 10 11 13 10 2 3 3 4 3 1 7 7 5 4 4 1 1 2 2 4 4 5 4 10 5 6 3 3 5 8 5 3 4 4 3 6 9 11 11 8 8 4 4 3 1 3 4
13 13 15 15 15 14 11 10 11 9 4 3 4 4 4 4 6 4 6 3 3 2 4 2 2 0 2 2 2 2 3 4 5 7 3 7 6 5 5 5 5 6 6 7 5 5 5 4 5 6 6 6 7 8
12 14 16 17 9 4 9 11 13 5 2 4 6 5 8 4 4 8 7 4 4 5 2 5 3 4 5 3 4 2 4 5 3 2 4 7 8 6 7 8 9 9 8 6 5 6 7 6 6 7 8 9 7 5
10 15 2 4 4 9 12 13 9 3 3 4 7 8 8 8 5 6 4 6 4 3 4 3 2 4 3 3 6 5 4 2 3 3 4 7 10 9 7 6 6 5 5 4 3 2 2 3 5 5 7 8 8 10
5 4 4 2 9 15 15 4 2 5 4 4 5 6 7 8 9 1 5 5 8 4 2 3 5 3 3 4 4 7 4 1 3 8 7 7 9 8 7 6 6 4 3 2 2 1 3 4 4 5 6 6 7 8
4 2 5 8 10 9 2 5 4 4 7 7 7 5 5 7 8 7 2 5 5 4 3 1 5 3 3 3 3 3 5 5 6 5 6 6 6 7 5 6 5 4 3 2 2 3 2 2 3 2 4 4 5 7
6 9 12 10 6 5 3 3 4 5 5 6 5 7 5 6 7 8 8 7 6 5 5 3 4 4 4 4 2 4 4 3 1 5 6 6 5 5 5 5 5 4 3 1 2 1 3 4 3 1 2 2 2 1
13 16 15 10 5 3 4 4 3 5 4 3 6 5 6 6 6 6 7 8 7 5 4 5 6 8 1 0 2 3 3 3 4 3 2 4 2 4 6 6 4 6 6 6 4 0 2 0 5 2 3 4 2 4
7 3 3 4 4 4 4 4 4 4 6 5 5 5 5 7 7 7 7 7 7 8 8 9 10 10 8 9 6 4 2 4 4 2 3 2 4 5 6 6 6 9 5 9 5 4 4 4 2 2 5 6 3 7
1 4 2 3 3 3 4 5 5 5 4 7 9 6 8 7 7 7 5 7 8 8 8 9 9 6 6 7 6 7 5 7 8 1 5 3 4 4 7 4 5 7 2 5 4 7 5 9 5 4 2 3 1 1
3 3 3 2 2 3 6 3 5 4 4 4 3 4 3 2 2 3 5 4 4 1 1 1 4 7 7 9 8 8 5 6 8 8 5 5 4 7 6 7 7 3 4 7 5 3 4 6 3 6 6 2 3 4
1 4 4 2 5 5 4 3 4 4 4 4 3 4 3 2 2 4 6 2 2 2 3 4 5 6 5 7 7 7 8 8 6 5 6 6 5 7 7 4 11 7 5 6 5 7 6 9 8 6 7 8 4 2
4 4 4 6 5 4 5 4 4 3 5 3 4 4 2 2 2 4 2 3 4 2 2 4 5 6 6 8 7 5 8 4 6 7 7 5 7 9 8 6 2 7 6 5 3 3 6 7 8 9 7 6 9 13
4 4 5 3 2 3 3 3 2 4 5 3 3 3 2 3 4 2 3 3 2 2 5 7 6 7 7 7 7 5 5 4 4 5 9 11 7 7 8 6 5 8 12 11 10 11 10 5 7 10 10 11 11 8
5 5 5 3 3 2 5 4 5 6 3 3 3 2 2 2 3 1 2 2 3 5 6 7 6 7 7 6 8 9 4 1 5 3 6 8 6 3 8 8 7 8 9 12 7 9 14 10 9 14 14 9 12 12
4 4 4 2 2 3 7 5 4 4 4 2 3 3 3 3 2 4 5 8 10 7 6 6 8 7 7 8 7 7 7 3 6 6 7 3 9 8 5 4 2 12 10 8 5 4 4 14 12 6 13 6 7 8
4 4 4 8 8 4 4 4 5 4 3 5 6 5 4 5 8 8 7 5 8 4 4 6 6 7 7 8 8 9 8 4 4 6 14 11 11 9 8 9 10 11 9 8 9 11 13 3 1 1 6 5 8 13
4 3 4 5 5 5 7 5 7 7 7 6 6 9 10 11 9 7 6 9 4 7 6 6 7 4 3 3 4 6 4 12 13 7 2 6 4 5 8 10 13 14 13 10 14 16 12 6 8 8 11 9 9 10
2 1 3 5 5 5 5 7 8 10 10 11 10 11 11 10 5 5 5 6 5 7 5 4 3 4 1 4 5 7 4 4 3 11 4 6 8 7 6 6 10 11 11 13 9 5 6 2 9 7 5 14 19 12
3 4 2 4 6 5 5 7 7 8 4 4 7 6 9 5 3 1 5 4 7 4 7 5 2 3 8 3 8 8 8 8 6 13 8 5 5 6 10 13 14 12 13 12 8 8 6 12 15 18 10 5 16 22
3 2 4 4 5 5 4 3 5 7 4 3 3 3 4 3 2 3 2 3 6 8 10 6 7 9 8 16 20 13 9 6 16 14 12 6 4 8 9 6 7 8 11 2 9 10 11 13 12 10 10 8 6 12
Wind_Direction
320 323 323 325 327 328 328 331 331 330 332 335 333 332 334 335 339 336 304 284 317 298 293 276 283 283 279 255 269 360 288 175 273 227 250 254 253 241 232 245 226 215 220 215 236 252 252 26 356 1 49 61 46 20
316 317 318 319 318 319 322 325 327 325 328 330 328 327 330 331 329 337 284 337 319 277 281 303 288 277 272 283 295 294 315 310 352 304 259 285 269 266 266 266 157 190 65 288 322 13 17 15 90 30 14 352 5 47
308 308 310 313 315 314 315 318 322 324 325 324 322 322 324 323 313 303 294 316 294 265 267 246 247 244 224 232 249 262 270 349 350 352 311 306 312 332 26 284 281 302 338 159 221 242 349 50 50 20 10 289 166 109
303 308 309 312 313 312 312 313 315 321 316 317 317 317 317 315 300 283 271 290 305 276 276 304 135 200 194 219 214 231 265 289 316 310 289 288 296 339 317 333 320 51 30 10 360 322 278 271 242 174 119 90 95 97
304 306 306 310 311 311 313 314 314 311 313 312 313 315 313 311 302 284 258 250 247 273 317 306 309 274 206 201 198 225 234 246 268 280 266 275 294 313 319 307 293 312 347 298 301 320 295 310 118 148 178 151 153 143
299 301 305 309 312 313 316 315 309 309 310 308 307 313 311 308 303 288 256 173 196 224 282 291 334 235 195 144 203 212 219 225 244 267 262 243 268 24 320 296 298 299 299 291 300 300 65 32 89 133 121 31 186 153
296 298 303 309 313 315 313 311 315 312 310 304 304 305 311 306 252 245 2 12 211 217 254 277 251 156 172 177 199 187 191 206 223 236 255 274 267 220 252 266 285 284 302 321 331 0 336 345 283 246 201 189 134 119
295 298 305 310 314 310 309 316 315 314 311 306 302 301 304 302 251 263 222 210 269 254 260 273 266 157 188 193 189 185 176 208 190 244 214 223 235 204 251 263 282 287 332 331 323 318 301 282 280 264 268 141 139 126
295 300 305 310 312 311 314 318 317 316 309 305 305 304 262 227 225 71 118 172 219 281 288 268 277 329 179 231 211 157 227 197 210 207 250 248 217 217 216 212 243 260 261 279 304 301 293 275 265 259 215 140 182 157
295 298 303 309 309 312 317 318 323 319 313 308 282 216 163 0 135 161 175 186 204 220 229 256 282 274 252 218 184 187 193 239 203 201 206 225 239 245 243 233 130 54 321 245 292 292 295 269 252 276 176 168 160 159
293 296 303 309 309 317 319 321 327 322 329 350 346 345 317 200 244 220 233 215 191 215 221 242 245 275 261 247 343 321 190 265 237 210 222 220 220 62 69 77 67 119 260 280 274 272 301 338 281 71 58 32 3 119
291 294 299 302 308 314 318 320 328 325 356 280 292 286 276 251 236 228 231 220 217 251 208 216 213 226 315 339 268 50 354 30 259 355 119 250 107 37 91 61 81 351 359 315 270 76 64 43 39 46 116 119 205 15
291 294 295 296 300 306 313 310 317 307 298 257 201 251 240 253 311 235 209 193 227 340 292 277 273 284 177 257 249 151 200 220 174 251 237 81 118 98 69 92 47 2 65 54 49 50 59 59 49 11 5 152 175 196
290 291 291 291 293 292 295 298 311 319 289 271 229 242 255 221 238 254 321 358 327 43 360 300 270 4 278 313 345 19 276 310 198 208 188 109 116 111 97 94 104 76 76 82 60 52 34 12 11 354 331 336 346 330
292 291 288 287 284 266 282 289 293 281 280 271 285 244 222 254 204 270 295 297 10 3 10 330 258 210 180 171 255 101 278 232 233 275 108 122 134 135 103 81 81 71 64 52 35 37 27 8 348 332 337 330 313 292
305 296 241 125 292 296 288 290 265 186 238 247 254 266 319 303 1 347 26 321 11 15 326 105 328 282 197 223 202 207 254 354 51 34 117 130 119 108 113 101 97 88 75 60 55 50 352 360 331 329 320 303 304 315
294 250 153 340 321 298 283 271 217 209 244 238 251 298 289 287 292 228 311 346 331 308 30 324 240 162 286 226 211 354 41 84 312 105 121 121 114 110 112 125 107 115 107 75 27 23 331 281 303 338 315 315 307 280
240 286 80 10 338 306 262 221 249 245 235 236 246 257 263 282 296 300 262 340 323 3 355 246 299 296 267 17 22 6 37 328 6 50 75 85 105 120 125 135 167 145 122 111 309 271 250 308 315 329 330 293 259 260
287 309 321 317 318 299 277 244 242 264 252 275 278 265 277 287 282 284 283 271 261 282 299 262 252 255 240 122 150 146 240 88 4 294 119 128 142 151 163 175 191 176 175 213 313 0 62 7 14 349 245 221 36 202
279 274 270 273 252 251 246 235 253 266 274 296 280 271 272 274 268 279 283 285 279 228 231 223 249 279 53 45 347 42 15 329 102 332 135 105 175 200 194 201 219 183 203 191 191 70 160 119 318 118 80 67 81 44
248 71 156 203 194 252 275 292 258 267 293 274 288 295 277 275 267 259 258 255 252 244 239 240 255 278 341 342 326 323 320 270 287 296 65 114 213 187 229 198 205 233 221 177 165 123 239 148 195 154 172 134 183 146
52 267 259 184 256 166 257 249 265 309 260 282 295 279 265 254 264 261 239 243 234 244 235 250 274 320 296 281 310 254 243 270 275 180 156 147 180 211 247 212 231 241 221 127 196 178 167 158 168 150 159 146 208 89
250 265 241 253 252 244 259 236 243 245 259 268 249 253 226 254 240 183 242 225 218 50 282 345 307 310 293 300 302 293 284 261 257 254 208 245 213 182 231 253 253 200 181 239 199 133 131 110 170 153 185 137 113 237
189 241 235 227 195 253 250 237 254 229 252 247 260 287 290 246 264 247 247 130 84 93 111 16 344 307 288 264 267 270 270 258 233 243 236 220 281 193 204 244 255 230 202 205 291 174 184 171 157 188 181 160 168 224
233 241 191 242 230 247 253 235 222 250 257 250 269 293 329 310 274 264 276 107 157 90 41 322 298 288 300 301 299 297 293 257 274 219 222 155 225 236 224 188 280 277 269 183 209 319 288 208 212 178 179 188 209 186
245 224 199 236 224 249 305 288 40 291 309 301 265 230 267 284 266 289 41 16 69 356 356 334 328 313 288 290 283 292 295 300 263 259 207 226 212 241 217 210 177 259 262 238 175 187 215 268 337 320 204 187 214 240
244 238 210 246 254 272 281 271 278 267 272 259 279 273 280 260 263 337 221 195 208 228 232 248 245 257 270 281 277 266 287 239 260 272 302 268 161 193 251 229 225 264 343 322 203 228 181 161 186 251 265 207 195 212
262 300 261 285 277 271 275 275 269 271 262 281 270 241 257 244 245 217 208 188 211 227 241 239 254 230 245 261 265 273 267 256 297 314 300 243 180 201 195 188 318 285 291 310 285 302 276 190 195 251 274 289 220 211
254 280 297 273 265 249 248 235 245 245 226 252 268 281 265 280 294 303 294 271 153 200 233 247 251 246 212 225 232 241 250 75 312 283 236 196 195 207 185 200 214 239 259 235 262 245 269 46 14 290 295 141 245 279
250 247 262 270 242 231 226 233 286 306 316 323 316 297 290 285 291 294 300 108 105 238 240 229 246 253 258 310 289 271 207 178 202 237 237 209 192 237 203 195 209 234 251 241 218 212 216 217 198 210 232 243 230 228
299 283 272 257 269 266 256 266 270 270 263 257 252 253 265 271 295 10 342 81 213 233 185 214 201 177 305 334 291 277 288 321 131 117 238 316 296 304 297 248 235 238 248 257 268 233 170 206 303 290 21 329 305 273
188 213 253 277 291 305 338 255 240 237 244 270 278 278 282 32 320 340 122 176 280 208 156 178 206 174 151 304 297 274 298 314 131 139 110 275 211 226 259 259 254 257 248 232 187 239 209 154 228 249 215 292 346 310
85 154 223 265 260 244 199 259 350 350 346 332 336 50 81 134 305 308 328 93 63 54 336 354 198 254 222 174 218 248 257 214 125 126 153 175 268 279 286 7 23 351 332 128 214 242 245 263 229 164 142 151 29 3